Hourly Data Report for November 21, 2017

All times are specified in Local Standard Time (LST). Add 1 hour to adjust for Daylight Saving Time where and when it is observed.

BATHURST A
NEW BRUNSWICK

47°37'47.000" N
65°44'20.000" W
58.80 m
8100505
71574
ZBF

Download Data

Hourly Data (November 2017)
Hourly Data Report for November 21, 2017
Temp Definition
°C
Dew Point Temp Definition
°C
Rel Hum Definition
%
Wind Dir Definition
10's deg

Wind Spd Definition
km/h
Visibility Definition
km
Stn Press Definition
kPa
Hmdx Definition


Wind Chill Definition


Weather Definition


TIME
00:00 Legend Double Dagger -7.7 -13.0 66 27 18 24.1 99.99   -15 LegendNANA
01:00 Legend Double Dagger -7.7 -13.1 65 28 26 24.1 100.07   -16 LegendNANA
02:00 Legend Double Dagger -8.1 -13.1 68 27 17 24.1 100.17   -15 Mainly Clear
03:00 Legend Double Dagger -7.9 -13.2 66 29 18 24.1 100.32   -15 Snow Showers
04:00 Legend Double Dagger -8.2 -13.6 65 29 18 24.1 100.37   -15 Snow Showers
05:00 Legend Double Dagger -8.6 -13.7 67 26 12 24.1 100.46   -14 Mainly Clear
06:00 Legend Double Dagger -8.8 -14.3 65 28 17 24.1 100.57   -16 LegendNANA
07:00 Legend Double Dagger -9.5 -14.1 70 25 17 24.1 100.68   -17 LegendNANA
08:00 Legend Double Dagger -9.8 -14.4 70 25 11 24.1 100.77   -15 Clear
09:00 Legend Double Dagger -8.7 -14.5 63 24 9 24.1 100.85   -13 LegendNANA
10:00 Legend Double Dagger -7.1 -14.1 58 26 18 24.1 100.86   -14 LegendNANA
11:00 Legend Double Dagger -5.6 -13.6 54 24 24 24.1 100.89   -13 Mainly Clear
12:00 Legend Double Dagger -4.0 -14.3 45 26 13 24.1 100.81   -9 LegendNANA
13:00 Legend Double Dagger -2.4 -13.5 43 21 12 24.1 100.78   -7 LegendNANA
14:00 Legend Double Dagger -2.1 -13.8 41 19 13 24.1 100.79   -7 Mostly Cloudy
15:00 Legend Double Dagger -1.1 -12.1 43 14 5 24.1 100.78   -3 LegendNANA
16:00 Legend Double Dagger -1.3 -11.4 47 17 10 24.1 100.76   -5 LegendNANA
17:00 Legend Double Dagger -2.4 -11.6 49 17 10 24.1 100.83   -6 Mainly Clear
18:00 Legend Double Dagger -3.0 -11.1 54 15 9 24.1 100.82   -7 LegendNANA
19:00 Legend Double Dagger -3.1 -10.5 57 19 5 24.1 100.84   -5 LegendNANA
20:00 Legend Double Dagger -2.7 -9.6 59 13 5 24.1 100.79   -5 Cloudy
21:00 Legend Double Dagger -2.4 -9.0 61 15 5 24.1 100.72   -4 LegendNANA
22:00 Legend Double Dagger -2.2 -8.5 62 36 3 24.1 100.75   -3 LegendNANA
23:00 Legend Double Dagger -3.5 -7.6 73 11 5 24.1 100.68   -6 Mainly Clear

Notes on Data Quality.

Legend

  • E = Estimated
  • M = Missing
  • NA = Not Available
  • ‡ = Partner data that is not subject to review by the National Climate Archives
Date modified: